This is the latest recevied weather packets stored in our database for station/object YO2LDK-13. If no packets are shown the sender has not sent any weather packets the latest 1 day(s).
| Time | Temp. | Humidity | Pressure | Rain* | Wind** | Luminosity | Snow |
|---|---|---|---|---|---|---|---|
| 1778082620 | 25.56° C | 34% | 1000 hPa | 0 mm | - | 117 W/m² | - |
| 1778081721 | 26.11° C | 33% | 1000.3 hPa | 0 mm | - | 133 W/m² | - |
| 1778081122 | 25.56° C | 34% | 1000 hPa | 0 mm | - | 137 W/m² | - |
| 1778080820 | 25.56° C | 33% | 1000.3 hPa | 0 mm | - | 95 W/m² | - |
| 1778079922 | 26.67° C | 32% | 1000.3 hPa | 0 mm | - | 260 W/m² | - |
| 1778079622 | 26.67° C | 32% | 1000.7 hPa | 0 mm | - | 315 W/m² | - |
| 1778078720 | 26.67° C | 33% | 1000.7 hPa | 0 mm | - | 311 W/m² | - |
| 1778077531 | 26.11° C | 33% | 1000.7 hPa | 0 mm | - | 83 W/m² | - |
| 1778076320 | 26.11° C | 35% | 1000.7 hPa | 0 mm | - | 161 W/m² | - |
| 1778076021 | 26.11° C | 34% | 1001 hPa | 0 mm | - | 459 W/m² | - |
| 1778075421 | 26.67° C | 33% | 1001 hPa | 0 mm | - | 490 W/m² | - |
| 1778074520 | 26.67° C | 33% | 1001 hPa | 0 mm | - | 247 W/m² | - |
| 1778073669 | 27.22° C | 33% | 1001 hPa | 0 mm | - | 92 W/m² | - |
| 1778073020 | 26.67° C | 35% | 1001.4 hPa | 0 mm | - | 641 W/m² | - |
| 1778072720 | 26.11° C | 36% | 1001.7 hPa | 0 mm | - | 596 W/m² | - |
| 1778072120 | 26.11° C | 35% | 1001.7 hPa | 0 mm | - | 82 W/m² | - |
| 1778071820 | 27.22° C | 35% | 1001.7 hPa | 0 mm | - | 693 W/m² | - |
| 1778071222 | 26.67° C | 35% | 1001.7 hPa | 0 mm | - | 731 W/m² | - |
| 1778070620 | 25.56° C | 37% | 1002 hPa | 0 mm | - | 715 W/m² | - |
| 1778068520 | 25.56° C | 38% | 1002 hPa | 0 mm | - | 813 W/m² | - |
| 1778067622 | 25.56° C | 38% | 1002 hPa | 0 mm | - | 790 W/m² | - |
| 1778067324 | 25.56° C | 38% | 1002.4 hPa | 0 mm | - | 831 W/m² | - |
| 1778066122 | 25.56° C | 40% | 1002.4 hPa | 0 mm | - | 797 W/m² | - |
| 1778064322 | 25.56° C | 39% | 1002.7 hPa | 0 mm | - | 884 W/m² | - |
| 1778063424 | 25.56° C | 39% | 1003 hPa | 0 mm | - | 843 W/m² | - |
* Rain latest hour (hover to see other rain measurements)
** Current wind speed in m/s (hover to see current wind gust speed)